SB KEPS @ AMSAT $ORB12138.N 2Line Orbital Elements 12138.AMSAT
HR AMSAT ORBITAL ELEMENTS FOR AMATEUR SATELLITES IN NASA FORMAT FROM WA5QGD FORT WORTH,TX May 17, 2012 Send SUBSCRIBE KEPS/UNSUBSCRIBE KEPS to [email protected] only BID: ORB12138.N
DECODE 2-LINE ELSETS WITH THE FOLLOWING KEY: 1 AAAAAU 00 0 0 BBBBB.BBBBBBBB .CCCCCCCC 00000-0 00000-0 0 DDDZ 2 AAAAA EEE.EEEE FFF.FFFF GGGGGGG HHH.HHHH III.IIII JJ.JJJJJJJJKKKKKZ KEY: A-CATALOGNUM B-EPOCHTIME C-DECAY D-ELSETNUM E-INCLINATION F-RAAN G-ECCENTRICITY H-ARGPERIGEE I-MNANOM J-MNMOTION K-ORBITNUM Z-CHECKSUM
TO ALL RADIO AMATEURS BT
AO-07 1 07530U 74089B 12138.42020871 -.00000027 00000-0 10000-3 0 3811 2 07530 101.4014 136.8198 0011915 344.4740 015.5976 12.53589299716197 FO-29 1 24278U 96046B 12137.90520871 .00000006 00000-0 39094-4 0 08482 2 24278 098.5839 242.6568 0351237 110.2840 253.6413 13.52983410777727 SO-33 1 25509U 98061B 12137.47682434 .00000676 00000-0 12052-3 0 2330 2 25509 031.4350 153.1475 0352774 285.8160 070.3851 14.28735060708110 RS-22 1 27939U 03042A 12138.72000763 .00000555 00000-0 11428-3 0 3627 2 27939 097.8152 341.0971 0013551 007.0722 353.0672 14.64007940461420 VO-52 1 28650U 05017B 12137.81410167 .00001466 00000-0 18592-3 0 01050 2 28650 097.5999 170.3018 0027209 142.0385 218.2729 14.82900887380328 HO-68 1 36122U 09072B 12138.73649777 -.00000044 00000-0 00000 0 0 4697 2 36122 100.3635 198.6939 0007515 176.2935 183.8243 13.16295420116381 UO-11 1 14781U 84021B 12137.89504437 .00000691 00000-0 97311-4 0 08765 2 14781 097.9563 197.6858 0009598 129.7339 230.4715 14.80424556515306 AO-16 1 20439U 90005D 12138.48440302 .00000143 00000-0 69223-4 0 4676 2 20439 098.4284 082.7215 0009947 250.4501 109.5610 14.32048928165607 LO-19 1 20442U 90005G 12137.95318682 .00000162 00000-0 75659-4 0 03946 2 20442 098.3942 085.3209 0011008 241.7355 118.2715 14.32267764165710 AO-27 1 22825U 93061C 12137.88754780 .00000089 00000-0 51980-4 0 1041 2 22825 098.5728 081.1925 0008802 017.9186 342.2297 14.29456395972001 IO-26 1 22826U 93061D 12138.52426516 .00000127 00000-0 66281-4 0 8542 2 22826 098.5674 082.1982 0009170 009.7811 350.3546 14.29730074972229 GO-32 1 25397U 98043D 12138.18416799 .00000189 00000-0 10141-3 0 7761 2 25397 098.3602 118.4236 0001754 048.1481 311.9853 14.23274520719618 NO-44 1 26931U 01043C 12138.40264948 .00000039 00000-0 47421-4 0 413 2 26931 067.0518 199.6823 0007649 269.5185 090.5044 14.29793249554848 SO-50 1 27607U 02058C 12137.72251951 .00000440 00000-0 87293-4 0 07633 2 27607 064.5592 030.6131 0084022 254.6308 104.5500 14.72356864505330 CO-55 1 27844U 03031E 12138.57431204 .00000229 00000-0 12592-3 0 3756 2 27844 098.7028 147.3984 0009461 317.0375 043.0067 14.21012897460547 CO-57 1 27848U 03031J 12138.57261814 .00000179 00000-0 10317-3 0 3261 2 27848 098.7107 146.7170 0009435 323.6316 036.4224 14.20765501460488 AO-51 1 28375U 04025K 12137.62424019 .00000159 00000-0 60173-4 0 02683 2 28375 098.1450 104.3748 0083832 135.8755 224.9158 14.40938556414228 CP3 1 31129U 07012N 12137.95714200 .00000555 00000-0 13633-3 0 01679 2 31129 097.8823 147.5728 0100002 220.0069 139.3745 14.53037102269444 CO-65 1 32785U 08021C 12138.74624436 .00001716 00000-0 21764-3 0 3102 2 32785 097.8029 200.5158 0015027 157.4640 202.7228 14.82917590219253 PRISM 1 33493U 09002B 12138.71288557 .00002836 00000-0 34851-3 0 7026 2 33493 098.1669 278.5612 0019633 039.3035 320.9603 14.83748550179239 SOHLA-1 1 33496U 09002E 12137.86061828 .00000348 00000-0 66379-4 0 07481 2 33496 098.1018 249.8094 0007193 134.0363 226.1428 14.69950070177641 SO-67 1 35870U 09049F 12138.71458087 .00004326 00000-0 18376-3 0 9623 2 35870 097.2355 175.5346 0000556 334.2768 148.2888 15.23572439147974 TISAT-1 1 36799U 10035E 12138.68604365 .00001819 00000-0 23672-3 0 9808 2 36799 098.0629 214.7977 0013504 272.3066 087.6608 14.81852564 99979 STUDSAT 1 36801U 10035G 12137.78950805 .00004894 00000-0 59364-3 0 04195 2 36801 098.0700 214.4727 0011702 262.0975 097.8910 14.84006435099864 FO-69 1 37227U 0 12137.20776016 -.00000156 00000-0 -14163-4 0 01854 2 37227 071.9700 022.5277 0015841 014.5841 345.5297 14.77040511031373 FO-70 1 37380U 0 12137.27567472 .00001384 00000-0 20450-3 0 01852 2 37380 071.9741 022.8962 0018036 010.0794 350.0707 14.76807976031270 ALMASAT-1 1 38078U 12006B 12138.87108008 .00012555 00000-0 34772-3 0 2179 2 38078 069.4994 025.8912 0763296 286.5758 065.2891 14.08465418 13286 XATCOBEO 1 38082U 12006F 12138.72689990 .00028782 00000-0 71361-3 0 2479 2 38082 069.4967 025.0805 0745305 286.1038 065.9384 14.14384961 13286 NOAA-10 1 16969U 86073A 12137.61984439 .00000120 00000-0 66246-4 0 09242 2 16969 098.5852 167.2310 0012210 331.9956 028.0555 14.27549713335360 NOAA-11 1 19531U 88089A 12137.74835881 -.00000228 00000-0 -95582-4 0 09234 2 19531 098.7310 223.5666 0010835 317.9610 042.0734 14.14965416220064 NOAA-12 1 21263U 91032A 12137.88271352 .00000052 00000-0 40933-4 0 04220 2 21263 098.7310 159.6932 0013058 294.8609 065.1212 14.25493894092090 MET-3/5 1 21655U 91056A 12138.45793701 -.00000072 00000-0 -21805-3 0 4110 2 21655 082.5551 173.8964 0014054 044.5554 315.6695 13.17037961997857 MET-2/21 1 22782U 93055A 12138.78542451 .00000047 00000-0 29396-4 0 4195 2 22782 082.5486 056.6337 0021036 236.2762 123.6390 13.83684036944964 OKEAN-4 1 23317U 94066A 12138.88738489 .00001103 00000-0 12982-3 0 8888 2 23317 082.5406 059.5295 0023431 090.8442 269.5456 14.83753339950319 NOAA-14 1 23455U 94089A 12137.91005176 .00000117 00000-0 84562-4 0 09068 2 23455 098.8275 221.8009 0010264 051.5528 308.6560 14.13897456896370 NOAA-15 1 25338U 98030A 12137.74242583 .00000060 00000-0 44534-4 0 02634 2 25338 098.6878 124.9499 0010132 195.2605 164.8255 14.25066914728378 RESURS 1 25394U 98043A 12138.56160933 .00000018 00000-0 25667-4 0 883 2 25394 098.3201 128.4150 0001680 009.1631 350.9580 14.24286720720043 FENGYUN1 1 25730U 99025A 12138.90455549 .00001759 00000-0 10288-2 0 6066 2 25730 098.8440 098.4156 0020366 088.5205 271.8299 14.09506379670342 OKEAN-0 1 25860U 99039A 12137.97055059 .00000502 00000-0 83465-4 0 06292 2 25860 097.9329 101.2586 0001377 047.2016 312.9307 14.74186345689970 NOAA-16 1 26536U 00055A 12137.73334931 .00000394 00000-0 23714-3 0 07487 2 26536 099.0972 179.3662 0010818 167.9506 192.1918 14.12738078600598 NOAA-17 1 27453U 02032A 12137.76437232 .00000191 00000-0 10005-3 0 07062 2 27453 098.3387 166.3861 0010684 247.1849 112.8196 14.24430773514289 NOAA-18 1 28654U 05018A 12137.80845704 .00000174 00000-0 12087-3 0 01815 2 28654 099.0429 095.6389 0013395 242.0741 117.9082 14.11647799360131 NOAA-19 1 33591U 09005A 12137.80934715 .00000415 00000-0 25354-3 0 03734 2 33591 098.8624 077.9894 0014992 108.5347 251.7442 14.11337245168581 HUBBLE 1 20580U 90037B 12138.17053356 .00001743 00000-0 11581-3 0 28 2 20580 028.4715 346.5126 0003476 087.8872 272.2114 15.02470528 10061 ISS 1 25544U 98067A 12139.07006944 .00011767 00000-0 17122-3 0 5732 2 25544 051.6405 273.0039 0010581 331.2861 014.4487 15.56174428773318 CO-58 1 28895U 05043F 12137.63930815 .00000687 00000-0 15017-3 0 01779 2 28895 097.9197 005.2925 0016688 249.0655 110.8793 14.60604594349058 FALCON 1 30776U 07006E 12138.92213943 .00003994 00000-0 26151-3 0 3485 2 30776 035.4311 101.6739 0001067 108.7216 251.3626 15.07341586285682 MAST 1 31126U 07012K 12137.98310156 .00000485 00000-0 11873-3 0 04692 2 31126 097.8723 150.9085 0092841 207.4965 152.1314 14.54135592269739 CAPE1 1 31130U 07012P 12138.47483255 .00000455 00000-0 11380-3 0 4705 2 31130 097.8821 147.7733 0100608 218.9045 140.4933 14.52908422269313 COMPASS 1 32787U 08021E 12138.25428180 .00002077 00000-0 25606-3 0 3041 2 32787 097.8029 200.2727 0015553 157.9349 202.2573 14.83884612219223 AAUSAT2 1 32788U 08021F 12137.82603848 .00002486 00000-0 30300-3 0 2949 2 32788 097.8052 200.2177 0014840 157.8724 202.3115 14.84197189219188 DO-64 1 32789U 08021G 12137.70221503 .00003714 00000-0 43450-3 0 3105 2 32789 097.8146 202.0003 0015162 156.7658 203.4211 14.85599149219208 CO-66 1 32791U 08021J 12138.77155833 .00001389 00000-0 17570-3 0 2950 2 32791 097.8022 200.5435 0016162 155.9419 204.2500 14.83323454219238 RS-30 1 32953U 08025A 12138.86537391 .00000010 00000-0 00000 0 0 7857 2 32953 082.4995 313.9969 0019188 017.0832 343.0890 12.43023359180793 TACSAT-3 1 35001U 09028A 12121.72616188 .15204951 73582-5 42606-3 0 00016 2 35001 040.4259 351.8840 0007146 275.2650 085.0693 16.45157000166990 PHARMSAT 1 35002U 09028B 12138.75789541 .00104880 00000-0 57907-3 0 8991 2 35002 040.4601 261.4225 0005974 357.4042 002.6759 15.78476963169505 METEOR-M 1 35865U 09049A 12138.67900493 -.00000008 00000-0 16253-4 0 4166 2 35865 098.6565 193.5723 0003022 126.1821 233.9635 14.21861935138267 RS-38 1 35869U 09049E 12138.77500001 .00000015 00000-0 26366-4 0 4255 2 35869 098.6522 193.6674 0005097 131.8122 228.3490 14.22069166138298 JUGNU 1 37839U 11058B 12138.50179443 .00000620 00000-0 19019-3 0 1503 2 37839 019.9639 184.1285 0018699 246.4524 113.3882 14.12052450 30900 SRMSAT 1 37841U 11058D 12137.52393186 .00000264 00000-0 00000-0 0 01511 2 37841 019.9742 194.3167 0012179 203.8569 156.1295 14.10137841030722 RAX-2 1 37853U 11061D 12137.88481939 .00006762 00000-0 54070-3 0 1788 2 37853 101.7150 163.8223 0248083 080.1559 282.7554 14.79705416 29762 AUBIESAT 1 37854U 11061E 12138.59098777 .00006958 00000-0 54711-3 0 1804 2 37854 101.7177 165.0654 0249372 077.7647 285.1356 14.80074655 29860 HRBE 1 37855U 11061F 12138.53420446 .00006843 00000-0 54012-3 0 1785 2 37855 101.7191 164.9431 0249454 077.7645 285.1367 14.79944021 29859 RS-39 1 38051U 11062C 12138.71690972 .00008905 00000-0 37799-3 0 3414 2 38051 051.6301 304.9892 0011262 288.9056 258.5437 15.23770008 17320 E-STAR 1 38079U 12006C 12138.81720291 .00023095 00000-0 56354-3 0 2326 2 38079 069.4922 025.0027 0751799 286.0969 065.8674 14.13365848 13299 GOLIAT 1 38085U 12006J 12138.71750321 .00023106 00000-0 57056-3 0 2175 2 38085 069.4961 025.3976 0755039 286.3573 065.5871 14.12432531 13277 /EX